Date String (YYYY-MM-DD hh:mm:ss) UTC,Instrument flags,Ambient pressure (hPa),Sample flow (lpm),Bypass flow (lpm),Sample temperature (°C),Ambient temperature (°C),ASC tube jacket temperature (°C),LED temperature (°C),Box temperature (°C),Sample RH (%),Span deviation,Mass concentration (μg/m³),Mass concentration (μg/m³),Mass concentration (μg/m³)
DateTimeUTC,F1_M11,P_M11,Q1_M11,Q2_M11,T1_M11,T2_M11,T3_M11,T4_M11,T5_M11,U1_M11,ZSPAN_M11,X0_M11,X2_M11,X1_M11
2022-09-14 17:00:00,,0823.8,5.00,0.00,30.4,29.2,00.0,39.1,32.3,20.6,0000.0,0012.23,0005.97,0005.12
2022-09-14 17:01:00,,0823.8,5.00,0.00,30.4,29.3,00.0,39.1,32.3,20.5,0000.0,0012.53,0005.99,0005.14
2022-09-14 17:02:00,,0823.8,5.00,0.00,30.5,29.2,00.0,39.1,32.3,21.0,0000.0,0012.54,0006.03,0005.14
2022-09-14 17:03:00,,0823.8,5.00,0.00,30.5,28.1,00.0,39.1,32.3,20.9,0000.4,0012.35,0006.09,0005.16
2022-09-14 17:04:00,,0823.8,5.00,0.00,30.4,26.9,00.0,39.1,32.2,20.8,0001.0,0012.30,0006.08,0005.17
2022-09-14 17:05:00,,0823.8,5.00,0.00,30.4,26.9,00.0,39.0,32.1,20.8,0001.2,0013.49,0006.09,0005.18
2022-09-14 17:06:00,,0823.8,5.01,0.00,30.3,27.1,00.0,39.0,31.9,20.3,0001.7,0013.62,0006.10,0005.22
2022-09-14 17:07:00,,0823.7,5.00,0.00,30.2,27.5,00.0,39.0,31.9,20.5,0001.0,0013.49,0006.14,0005.24
2022-09-14 17:08:00,,0823.7,5.00,0.00,30.2,27.8,00.0,38.9,31.9,20.5,0000.7,0013.29,0006.19,0005.24
2022-09-14 17:09:00,,0823.7,5.00,0.00,30.2,28.1,00.0,38.9,31.9,20.5,0001.4,0013.47,0006.20,0005.23
2022-09-14 17:10:00,,0823.7,5.01,0.00,30.2,28.3,00.0,38.9,31.9,20.8,0001.4,0013.53,0006.20,0005.22
2022-09-14 17:11:00,,0823.8,4.99,0.00,30.2,28.5,00.0,38.9,32.0,21.0,0001.0,0013.24,0006.18,0005.21
2022-09-14 17:12:00,,0823.7,5.00,0.00,30.2,28.6,00.0,38.9,32.0,20.9,0000.5,0013.05,0006.19,0005.20
2022-09-14 17:13:00,,0823.8,4.99,0.00,30.2,28.8,00.0,38.9,32.0,21.1,-000.1,0012.77,0006.24,0005.21
2022-09-14 17:14:00,,0823.7,5.02,0.00,30.2,28.9,00.0,38.9,32.1,21.5,-000.4,0012.84,0006.27,0005.23
2022-09-14 17:15:00,,0823.7,4.99,0.00,30.3,29.0,00.0,38.9,32.1,21.0,-000.2,0012.85,0006.30,0005.24
2022-09-14 17:16:00,,0823.8,5.00,0.00,30.3,29.0,00.0,39.0,32.1,21.1,0000.4,0011.95,0006.30,0005.24
2022-09-14 17:17:00,,0823.7,4.99,0.00,30.3,29.1,00.0,39.0,32.2,21.4,0000.6,0011.74,0006.28,0005.24
2022-09-14 17:18:00,,0823.7,4.99,0.00,30.3,29.2,00.0,39.0,32.2,21.1,0000.7,0011.62,0006.24,0005.25
2022-09-14 17:19:00,,0823.7,5.01,0.00,30.4,29.2,00.0,39.0,32.2,21.3,0000.5,0012.31,0006.21,0005.26
2022-09-14 17:20:00,,0823.7,4.99,0.00,30.4,29.2,00.0,39.0,32.3,21.6,0000.9,0012.86,0006.25,0005.26
2022-09-14 17:21:00,,0823.7,5.00,0.00,30.4,28.3,00.0,39.0,32.3,21.3,0000.9,0013.26,0006.34,0005.29
2022-09-14 17:22:00,,0823.6,5.01,0.00,30.4,27.1,00.0,39.0,32.2,20.8,0000.0,0014.18,0006.36,0005.31
2022-09-14 17:23:00,,0823.7,5.01,0.00,30.4,27.0,00.0,39.0,32.1,21.5,0000.0,0014.74,0006.41,0005.34
2022-09-14 17:24:00,,0823.7,5.00,0.00,30.3,27.3,00.0,38.9,32.0,21.5,0000.0,0015.76,0006.42,0005.36
2022-09-14 17:25:00,,0823.6,4.99,0.00,30.2,27.6,00.0,38.9,31.9,21.1,0000.0,0016.29,0006.42,0005.37
2022-09-14 17:26:00,,0823.7,5.00,0.00,30.2,27.9,00.0,38.9,31.9,21.3,0000.0,0016.07,0006.40,0005.37
2022-09-14 17:27:00,,0823.6,4.99,0.00,30.2,28.1,00.0,38.9,31.9,21.7,0000.0,0016.20,0006.43,0005.36
2022-09-14 17:28:00,,0823.6,5.01,0.00,30.2,28.3,00.0,38.9,32.0,21.5,0000.0,0016.42,0006.44,0005.35
2022-09-14 17:29:00,,0823.6,4.99,0.00,30.2,28.5,00.0,38.9,32.0,21.8,0000.0,0016.83,0006.46,0005.33
2022-09-14 17:30:00,,0823.6,5.00,0.00,30.2,28.7,00.0,38.9,32.0,21.4,0000.0,0017.30,0006.43,0005.33
2022-09-14 17:31:00,,0823.6,5.00,0.00,30.2,28.8,00.0,38.9,32.1,21.7,0000.0,0017.06,0006.35,0005.34
2022-09-14 17:32:00,,0823.7,4.99,0.00,30.3,28.9,00.0,38.9,32.1,21.1,0000.0,0016.60,0006.25,0005.34
2022-09-14 17:33:00,,0823.6,5.01,0.00,30.3,29.0,00.0,38.9,32.1,20.8,0000.0,0016.05,0006.28,0005.34
2022-09-14 17:34:00,,0823.7,4.99,0.00,30.3,29.0,00.0,38.9,32.2,20.8,0001.2,0015.92,0006.30,0005.33
2022-09-14 17:35:00,,0823.6,5.00,0.00,30.3,28.1,00.0,38.9,32.2,20.8,0001.7,0014.97,0006.27,0005.33
2022-09-14 17:36:00,,0823.6,5.00,0.00,30.3,27.0,00.0,38.9,32.1,20.9,0002.2,0014.74,0006.27,0005.33
2022-09-14 17:37:00,,0823.6,5.00,0.00,30.2,27.0,00.0,38.9,32.0,20.9,0002.7,0015.23,0006.29,0005.35
2022-09-14 17:38:00,,0823.6,5.00,0.00,30.2,27.2,00.0,38.8,31.9,20.8,0002.0,0015.57,0006.32,0005.39
2022-09-14 17:39:00,,0823.6,4.99,0.00,30.1,27.5,00.0,38.8,31.8,21.1,0001.6,0015.34,0006.37,0005.44
2022-09-14 17:40:00,,0823.6,5.00,0.00,30.1,27.8,00.0,38.8,31.8,21.2,0001.3,0015.07,0006.45,0005.48
2022-09-14 17:41:00,,0823.6,5.01,0.00,30.1,28.1,00.0,38.8,31.9,21.3,0001.4,0013.95,0006.53,0005.52
2022-09-14 17:42:00,,0823.5,4.99,0.00,30.1,28.3,00.0,38.8,31.9,21.7,0001.7,0013.51,0006.60,0005.55
2022-09-14 17:43:00,,0823.4,5.01,0.00,30.1,28.5,00.0,38.8,31.9,22.2,0001.5,0013.33,0006.69,0005.60
2022-09-14 17:44:00,,0823.4,4.99,0.00,30.1,28.6,00.0,38.8,32.0,21.4,0001.1,0013.99,0006.74,0005.63
2022-09-14 17:45:00,,0823.4,4.99,0.00,30.1,28.8,00.0,38.8,32.0,21.4,0000.9,0014.15,0006.77,0005.68
2022-09-14 17:46:00,,0823.4,5.01,0.00,30.2,28.9,00.0,38.8,32.0,21.6,0000.2,0014.53,0006.88,0005.73
2022-09-14 17:47:00,,0823.4,5.00,0.00,30.2,29.0,00.0,38.8,32.1,21.7,0000.1,0014.12,0006.86,0005.76
2022-09-14 17:48:00,,0823.4,5.00,0.00,30.2,29.1,00.0,38.9,32.1,21.4,0000.5,0013.43,0006.87,0005.79
2022-09-14 17:49:00,,0823.4,5.00,0.00,30.3,28.5,00.0,38.9,32.1,21.5,0000.8,0013.00,0006.89,0005.82
2022-09-14 17:50:00,,0823.4,5.01,0.00,30.2,27.2,00.0,38.8,32.0,21.1,0000.6,0013.19,0006.90,0005.84
2022-09-14 17:51:00,,0823.4,5.00,0.00,30.2,26.7,00.0,38.8,31.9,21.2,0000.6,0013.41,0006.92,0005.87
2022-09-14 17:52:00,,0823.4,5.00,0.00,30.1,26.9,00.0,38.8,31.8,21.1,0000.7,0014.51,0006.93,0005.90
2022-09-14 17:53:00,,0823.3,5.00,0.00,30.0,27.2,00.0,38.7,31.7,21.4,0000.9,0015.00,0006.98,0005.91
2022-09-14 17:54:00,,0823.3,5.00,0.00,30.0,27.6,00.0,38.7,31.7,21.3,0001.0,0014.85,0006.96,0005.92
2022-09-14 17:55:00,,0823.3,4.99,0.00,30.0,27.9,00.0,38.7,31.7,21.2,0001.2,0013.86,0006.96,0005.93
2022-09-14 17:56:00,,0823.4,5.01,0.00,30.0,28.1,00.0,38.7,31.8,21.0,0001.2,0013.89,0006.94,0005.93
2022-09-14 17:57:00,,0823.4,4.99,0.00,30.0,28.3,00.0,38.7,31.8,21.2,0001.3,0015.71,0006.91,0005.93
2022-09-14 17:58:00,,0823.4,5.01,0.00,30.0,28.5,00.0,38.7,31.9,22.1,0000.9,0016.12,0006.93,0005.96
2022-09-14 17:59:00,,0823.4,4.99,0.00,30.0,28.7,00.0,38.7,31.9,21.7,0000.9,0016.23,0006.99,0005.98
